N7QNM-13 Weather Reports


time (UTC)temp
F
wind
direction
speed
knots
gust
knots
rain 1hr
in
rain 24hr
in
rain mn
in
humidity
%
barometer
mb
20260506061052 75 180 5.2 9.6 0.00 0.00 0.00 38 1009.6
20260506051052 76 167 4.3 9.6 0.00 0.00 0.00 37 1009.4
20260506045114 78 194 1.7 5.2 0.00 0.00 0.00 35 1009.4
20260506044053 78 173 3.5 9.6 0.00 0.00 0.00 34 1009.3
20260506043054 78 167 3.5 8.7 0.00 0.00 0.00 34 1009.2
20260506042114 78 161 3.5 8.7 0.00 0.00 0.00 34 1009.2
20260506041054 78 165 2.6 7.8 0.00 0.00 0.00 35 1009.1
20260506040055 78 160 3.5 8.7 0.00 0.00 0.00 35 1009.1
20260506035055 77 162 3.5 7.8 0.00 0.00 0.00 36 1009.0
20260506034055 77 154 0.9 5.2 0.00 0.00 0.00 38 1008.9
20260506033055 77 146 0.9 4.3 0.00 0.00 0.00 38 1008.9
20260506032055 77 164 3.5 7.0 0.00 0.00 0.00 38 1008.9
20260506031056 79 160 6.1 10.4 0.00 0.00 0.00 37 1008.9
20260506030055 80 155 5.2 8.7 0.00 0.00 0.00 36 1008.8
20260506025055 81 159 4.3 7.8 0.00 0.00 0.00 36 1008.8
20260506024056 83 157 2.6 8.7 0.00 0.00 0.00 35 1008.7
20260506023055 83 108 0.9 7.0 0.00 0.00 0.00 34 1008.7
20260506022056 84 107 0.9 4.3 0.00 0.00 0.00 35 1008.7
20260506021055 85 101 1.7 6.1 0.00 0.00 0.00 33 1008.7
20260506020056 85 135 1.7 5.2 0.00 0.00 0.00 33 1008.6
20260506015056 86 56 2.6 7.0 0.00 0.00 0.00 33 1008.5
20260506014137 87 52 1.7 6.1 0.00 0.00 0.00 32 1008.5
20260506013056 88 50 2.6 6.1 0.00 0.00 0.00 31 1008.5
20260506012059 88 50 1.7 5.2 0.00 0.00 0.00 31 1008.6
20260506011056 87 0.0 0.0 0.00 0.00 0.00 31 1008.6
20260506010057 87 20 1.7 5.2 0.00 0.00 0.00 31 1008.6
20260506005057 87 281 0.0 3.5 0.00 0.00 0.00 31 1008.6
20260506004057 87 38 0.0 3.5 0.00 0.00 0.00 31 1008.6
20260506003057 86 47 0.9 5.2 0.00 0.00 0.00 31 1008.7
20260506002057 85 47 0.9 4.3 0.00 0.00 0.00 32 1008.7
20260506001117 85 57 2.6 7.8 0.00 0.00 0.00 32 1008.8
20260506000057 86 45 2.6 9.6 0.00 0.00 0.00 33 1008.9
20260505235057 86 275 2.6 5.2 0.00 0.00 0.00 33 1009.0
20260505234057 85 59 0.9 5.2 0.00 0.00 0.00 32 1009.0
20260505233058 85 61 3.5 9.6 0.00 0.00 0.00 33 1009.1
20260505232057 85 45 1.7 7.0 0.00 0.00 0.00 33 1009.1
20260505231058 85 60 2.6 7.0 0.00 0.00 0.00 34 1009.2
20260505230118 85 57 4.3 9.6 0.00 0.00 0.00 34 1009.3
20260505225139 84 75 3.5 7.0 0.00 0.00 0.00 34 1009.4
20260505224058 84 47 0.9 6.1 0.00 0.00 0.00 34 1009.4
20260505223058 85 88 3.5 7.8 0.00 0.00 0.00 34 1009.5
20260505222059 85 39 0.0 2.6 0.00 0.00 0.00 33 1009.5
20260505221058 86 36 1.7 8.7 0.00 0.00 0.00 34 1009.6
20260505220059 86 135 1.7 7.0 0.00 0.00 0.00 34 1009.7
20260505215101 85 178 0.0 2.6 0.00 0.00 0.00 33 1009.7
20260505214059 84 46 2.6 6.1 0.00 0.00 0.00 34 1009.8
20260505213119 84 54 2.6 8.7 0.00 0.00 0.00 34 1009.9
20260505212058 84 62 0.9 4.3 0.00 0.00 0.00 34 1009.9
20260505211059 83 295 1.7 7.0 0.00 0.00 0.00 37 1010.1
20260505210059 82 58 2.6 9.6 0.00 0.00 0.00 36 1010.1
20260505205059 82 29 1.7 7.0 0.00 0.00 0.00 38 1010.1
20260505204100 82 16 0.9 6.1 0.00 0.00 0.00 36 1010.2
20260505203100 81 43 1.7 8.7 0.00 0.00 0.00 36 1010.3
20260505202059 81 16 0.9 4.3 0.00 0.00 0.00 37 1010.4
20260505201120 81 41 2.6 8.7 0.00 0.00 0.00 38 1010.5
20260505200119 81 46 1.7 6.1 0.00 0.00 0.00 38 1010.5
20260505195100 82 328 0.9 2.6 0.00 0.00 0.00 37 1010.6
20260505194100 82 34 0.9 5.2 0.00 0.00 0.00 37 1010.7
20260505193100 81 193 0.9 3.5 0.00 0.00 0.00 38 1010.7
20260505192101 80 285 3.5 7.0 0.00 0.00 0.00 40 1010.6
20260505191101 80 294 2.6 6.1 0.00 0.00 0.00 39 1010.7
20260505190120 79 347 0.9 2.6 0.00 0.00 0.00 39 1010.7
20260505185100 79 2 0.9 4.3 0.00 0.00 0.00 39 1010.8
20260505184100 79 32 0.0 2.6 0.00 0.00 0.00 40 1010.8
20260505183100 79 65 0.9 6.1 0.00 0.00 0.00 39 1010.8
20260505182101 79 255 1.7 5.2 0.00 0.00 0.00 39 1010.8
20260505181101 78 357 0.0 1.7 0.00 0.00 0.00 39 1010.9
20260505175101 79 21 0.9 4.3 0.00 0.00 0.00 40 1010.8
20260505174103 79 292 0.9 3.5 0.00 0.00 0.00 40 1010.8
20260505173102 77 234 1.7 3.5 0.00 0.00 0.00 40 1010.8
20260505172102 74 43 0.0 1.7 0.00 0.00 0.00 43 1010.8
20260505171102 73 44 1.7 5.2 0.00 0.00 0.00 48 1010.8
20260505170122 72 37 2.6 6.1 0.00 0.00 0.00 49 1010.8
20260505165102 71 40 2.6 7.0 0.00 0.00 0.00 51 1010.7
20260505164103 71 38 2.6 7.0 0.00 0.00 0.00 51 1010.7
20260505163103 72 35 2.6 6.1 0.00 0.00 0.00 51 1010.7
20260505162243 73 48 1.7 7.0 0.00 0.00 0.00 49 1010.6
20260505161103 73 45 1.7 5.2 0.00 0.00 0.00 48 1010.5
20260505153104 71 293 0.0 2.6 0.00 0.00 0.00 49 1010.4
20260505152103 71 294 1.7 6.1 0.00 0.00 0.00 48 1010.3
20260505151124 71 302 0.0 3.5 0.00 0.00 0.00 52 1010.2
20260505130124 57 0.0 0.0 0.00 0.00 0.00 72 1008.8
20260505124105 59 70 0.0 1.7 0.00 0.00 0.00 65 1008.4
20260505123104 59 243 0.0 1.7 0.00 0.00 0.00 64 1008.3
20260505122105 59 0.0 0.0 0.00 0.00 0.00 62 1008.2
20260505121105 60 154 0.0 0.9 0.00 0.00 0.00 63 1008.1
20260505120105 60 133 0.0 1.7 0.00 0.00 0.00 62 1008.0
20260505115105 61 253 0.0 1.7 0.00 0.00 0.00 60 1007.9
20260505114105 61 0.0 0.0 0.00 0.00 0.00 58 1007.9
20260505113106 62 129 0.0 1.7 0.00 0.00 0.00 58 1007.8
20260505112110 63 105 0.0 2.6 0.00 0.00 0.00 57 1007.7
20260505111107 64 0.0 0.0 0.00 0.00 0.00 56 1007.6
20260505110126 64 128 0.0 1.7 0.00 0.00 0.00 54 1007.5
20260505102106 68 270 3.5 5.2 0.00 0.00 0.00 48 1007.1
20260505101107 70 261 4.3 6.1 0.00 0.00 0.00 46 1007.0
20260505100107 71 259 6.1 10.4 0.00 0.00 0.00 43 1007.0
20260505095107 71 241 7.0 11.3 0.00 0.00 0.00 42 1006.9
20260505094107 70 244 6.1 12.2 0.00 0.00 0.00 43 1006.8
20260505093107 69 254 4.3 9.6 0.00 0.00 0.00 45 1006.8
20260505092127 67 250 5.2 10.4 0.00 0.00 0.00 46 1006.8
20260505091107 66 250 1.7 4.3 0.00 0.00 0.00 49 1006.8
20260505090107 67 0.0 0.0 0.00 0.00 0.00 48 1006.8
20260505085107 67 282 0.0 3.5 0.00 0.00 0.00 47 1006.7
20260505084108 67 241 4.3 6.1 0.00 0.00 0.00 49 1006.7
20260505083107 68 222 0.0 1.7 0.00 0.00 0.00 47 1006.8
20260505082108 70 43 0.0 3.5 0.00 0.00 0.00 45 1006.9
20260505081107 73 53 2.6 5.2 0.00 0.00 0.00 43 1007.0
20260505080108 74 276 4.3 7.0 0.00 0.00 0.00 38 1006.5
20260505075108 75 251 6.1 13.0 0.00 0.00 0.00 37 1006.4
20260505074109 75 242 4.3 8.7 0.00 0.00 0.00 37 1006.2
20260505073109 75 235 6.1 10.4 0.00 0.00 0.00 37 1006.1
20260505072130 74 231 6.1 10.4 0.00 0.00 0.00 37 1006.0
20260505071109 74 234 7.0 11.3 0.00 0.00 0.00 38 1006.0
20260505070129 74 239 5.2 8.7 0.00 0.00 0.00 39 1006.0
20260505065108 74 234 6.1 9.6 0.00 0.00 0.00 38 1006.0
20260505064110 74 233 5.2 9.6 0.00 0.00 0.00 38 1005.9
20260505063109 72 237 5.2 9.6 0.00 0.00 0.00 39 1005.8
20260505062109 67 246 5.2 9.6 0.00 0.00 0.00 46 1005.8